CREW DRAGON 3 (49407 NORAD) Tracking and Keplerian Element Data

This shows tracking and keplerian element data for the satellite.

Feedback or suggestion? Click here.




ElementValue
Catalog49407
NameCREW DRAGON 3
Epoch Orbit32150
Epoch Day15.51148618
Epoch Year2022
RAAN12.6547
Inclination51.6459
Eccentricity0.0006628
Argument of Perigee25.0489
Mean Anonmoly119.0809
Mean Motion15.49496822
Decay Rate4.603E-05
L11 49407U 21103A 22015.51148618 .00004603 00000+0 90119-4 0 9991
L22 49407 51.6459 12.6547 0006628 25.0489 119.0809 15.49496822321500

Live tracking and technical data element details for CREW DRAGON 3 (NORAD 49407). CREW DRAGON 3 can be tracked NOW for your location showing map with azimuth and elevation plus other details from your city location.

Track the satellite on the map from your city or location and see movement details for azimuth, elevation, latitude, longitude, range, height, and movement on the map or in text.







IsCatalogInMostPopularTable: catalog: 49407, numindb: 6
Update: records affected: 1



GetName: 49407 CREW DRAGON 3

Hit Count: updated at: Thu, 20 Jan 2022 16:22:18 GMT